Sioux Falls, SD

5:00 AM CST on November 14, 2019 (GMT -0600)
Foss

Weather History for KFSD - October, 2019

Change the Weather History Date:

Thursday, October 17, 2019

  Actual Average Record
Temperature  
Mean Temperature 52 °F 48 °F  
Max Temperature 68 °F 59 °F 85 °F (1910)
Min Temperature 35 °F 36 °F 13 °F (1976)
Degree Days  
Heating Degree Days 14 18  
Month to date heating degree days 283 245  
Since 1 July heating degree days 334 449  
Cooling Degree Days 0 0  
Month to date cooling degree days 0 0  
Year to date cooling degree days 830 685  
Growing Degree Days 2 (Base 50)    
Moisture  
Dew Point 38 °F    
Average Humidity 61    
Maximum Humidity 85    
Minimum Humidity 36    
Precipitation  
Precipitation 0.00 in 0.07 in 1.41 in (1994)
Month to date precipitation 2.10 1.39  
Year to date precipitation 36.44 23.55  
Snow  
Snow 0.00 in 0.00 in 6.10 in (1898)
Month to date snowfall 0.9 0.3  
Since 1 July snowfall 0.9 0.3  
Since 1 September snowfall 0.9 0.3  
Snow Depth 0.00 in    
Sea Level Pressure  
Sea Level Pressure 29.84 in    
Wind  
Wind Speed 8 mph ()    
Max Wind Speed 21 mph    
Max Gust Speed 29 mph    
Visibility 10.0 miles    
Events      
T = Trace of Precipitation, MM = Missing Value Source: Averaged Metar Reports

Daily Weather History Graph

Daily Weather History Graph

Search for Another Location

Airport or City:

Astronomy

Oct. 17, 2019 Rise Set
Actual Time 7:43 AM CDT 6:40 PM CDT
Civil Twilight 7:14 AM CDT 7:09 PM CDT
Nautical Twilight 6:41 AM CDT 7:42 PM CDT
Astronomical Twilight 6:07 AM CDT 8:15 PM CDT
Moon 9:07 PM CDT (10/17) 11:21 AM CDT (10/17)
Length of Visible Light 11h 55m
Length of Day
10h 57m
Waning Gibbous, 86% of the Moon is Illuminated
Oct 17
Waning Gibbous
Oct 21
Last Quarter
Oct 27
New
Nov 4
First Quarter
Nov 12
Full

Hourly Weather History & Observations

Time (CDT) Temp. Windchill Dew Point Humidity Pressure Visibility Wind Dir Wind Speed Gust Speed Precip Events Conditions
12:56 AM 42.1 °F 36.6 °F 33.1 °F 70% 29.99 in 10.0 mi South 9.2 mph - N/A   Clear
1:56 AM 39.0 °F 35.7 °F 32.0 °F 76% 29.98 in 10.0 mi SSE 4.6 mph - N/A   Clear
3:56 AM 37.0 °F 33.3 °F 32.0 °F 82% 29.95 in 10.0 mi ESE 4.6 mph - N/A   Clear
4:56 AM 39.0 °F 34.0 °F 33.1 °F 79% 29.94 in 10.0 mi SE 6.9 mph - N/A   Clear
5:56 AM 37.9 °F 33.5 °F 33.1 °F 83% 29.94 in 10.0 mi SSE 5.8 mph - N/A   Clear
6:56 AM 39.9 °F 35.8 °F 34.0 °F 79% 29.93 in 10.0 mi SE 5.8 mph - N/A   Clear
7:56 AM 37.9 °F 34.4 °F 33.1 °F 83% 29.94 in 10.0 mi SE 4.6 mph - N/A   Partly Cloudy
8:56 AM 42.1 °F 37.1 °F 35.1 °F 76% 29.93 in 10.0 mi SSE 8.1 mph - N/A   Partly Cloudy
9:56 AM 46.9 °F - 37.0 °F 68% 29.92 in 10.0 mi South 8.1 mph - N/A   Partly Cloudy
10:56 AM 51.1 °F - 39.0 °F 63% 29.91 in 10.0 mi SSE 8.1 mph - N/A   Partly Cloudy
11:56 AM 55.9 °F - 39.9 °F 55% 29.88 in 10.0 mi South 10.4 mph - N/A   Partly Cloudy
12:56 PM 61.0 °F - 41.0 °F 48% 29.85 in 10.0 mi South 12.7 mph - N/A   Scattered Clouds
2:56 PM 66.9 °F - 39.9 °F 37% 29.80 in 10.0 mi SSE 17.3 mph 26.5 mph N/A   Scattered Clouds
3:56 PM 64.9 °F - 39.0 °F 39% 29.77 in 10.0 mi SSE 13.8 mph 27.6 mph N/A   Scattered Clouds
4:56 PM 66.9 °F - 39.0 °F 36% 29.75 in 10.0 mi SE 15.0 mph 21.9 mph N/A   Scattered Clouds
5:56 PM 64.0 °F - 39.9 °F 41% 29.75 in 10.0 mi SE 12.7 mph - N/A   Scattered Clouds
6:56 PM 61.0 °F - 39.9 °F 46% 29.74 in 10.0 mi SE 15.0 mph - N/A   Scattered Clouds
7:56 PM 59.0 °F - 39.9 °F 49% 29.74 in 10.0 mi SE 12.7 mph 21.9 mph N/A   Scattered Clouds
8:56 PM 59.0 °F - 39.9 °F 49% 29.72 in 10.0 mi SSE 13.8 mph 26.5 mph N/A   Scattered Clouds
9:56 PM 57.0 °F - 41.0 °F 55% 29.73 in 10.0 mi SSE 16.1 mph 23.0 mph N/A   Overcast
10:56 PM 55.9 °F - 42.1 °F 60% 29.72 in 10.0 mi SSE 12.7 mph - N/A   Overcast
11:56 PM 55.0 °F - 42.1 °F 62% 29.70 in 10.0 mi SE 11.5 mph 20.7 mph N/A   Mostly Cloudy